www.pogodaiklimat.ru

Погода и климат >> Архив погоды >> Израиль >> Эйлат


ПОГОДА в Эйлате

  • Прогноз погоды в Эйлате
  • Монитор погоды в Эйлате

АРХИВ ПОГОДЫ в Эйлате

Время (UTC), дата Ветер
(напр.,м/с)
 
Видим.   Явления Облачность Т
(С)
Тd
(С)
f
(%)
Тe
(С)
Тes
(С)
Комфортность P
(гПа)
Po
(гПа)
Тmin
(С)
Tmax
(С)
R
(мм)
R24
(мм)
S
(см)
12 13.09 СВ 2 н/о н/о +37.3 +14.9 27 +39 +39 очень
душно
1005.3 1003.0
15 13.09 СВ 2 н/о н/о +36.4 +12.3 24 +36 +36 очень
жарко
1004.6 1002.3
18 13.09 СЗ 1 н/о н/о +33.9 +8.8 21 +32 +32 жарко 1006.4 1004.1 +28.6 +37.9
21 13.09 С 1 н/о н/о +30.7 +19.1 50 +36 +36 очень
душно
1007.6 1005.2
00 14.09 С 1 н/о н/о +28.6 +19.2 57 +34 +34 очень
душно
1007.3 1004.9
03 14.09 С 1 н/о н/о +27.2 +18.7 60 +32 +32 очень
душно
1007.5 1005.1
06 14.09 С 1 н/о н/о +29.9 +19.6 54 +36 +36 очень
душно
1008.3 1005.9 +26.8 +33.8
09 14.09 СВ 2 н/о н/о +33.2 +19.0 43 +38 +38 очень
душно
1007.3 1004.9
12 14.09 СВ 2 н/о н/о +35.9 +18.0 35 +40 +40 очень
душно
1005.4 1003.1
15 14.09 СВ 1 н/о н/о +35.5 +16.7 33 +38 +38 очень
душно
1004.9 1002.6
18 14.09 СЗ 2 н/о н/о +33.3 +14.2 32 +35 +35 душно 1006.8 1004.4 +29.6 +36.7
21 14.09 СВ 2 н/о н/о +30.1 +17.7 47 +34 +34 очень
душно
1008.4 1006.0
00 15.09 С 1 н/о н/о +27.7 +17.7 54 +32 +32 очень
душно
1008.1 1005.7
03 15.09 В 1 н/о н/о +26.1 +16.5 55 +30 +30 душно 1009.0 1006.6
06 15.09 В 1 10 км ясно +29.9 +15.9 43 +33 +40 душно 1010.3 1007.9 +25.5 +33.2
09 15.09 СВ 1 10 км ясно +34.5 +13.3 28 +35 +55 опасность
солнечного
удара
1009.5 1007.1
12 15.09 В 1 10 км ясно +36.9 +12.1 23 +37 +50 очень
жарко
1007.1 1004.8
15 15.09 С 1 10 км ясно +35.9 +9.1 20 +35 +35 очень
жарко
1006.8 1004.5
18 15.09 С 2 н/о н/о +32.8 +13.6 31 +34 +34 очень
жарко
1008.6 1006.2 +30.2 +37.4
21 15.09 С 1 н/о н/о +29.9 +16.7 45 +33 +33 душно 1010.0 1007.6
00 16.09 С 1 н/о н/о +28.1 +16.8 50 +32 +32 душно 1010.1 1007.7
03 16.09 СВ 1 н/о н/о +26.2 +16.7 56 +30 +30 душно 1010.8 1008.4
06 16.09 СВ 1 10 км ясно +29.3 +16.6 46 +33 +39 душно 1012.0 1009.6 +26.0 +32.7
09 16.09 СВ 1 10 км 4 балла +33.8 +14.9 32 +35 +47 очень
жарко
1010.9 1008.5
12 16.09 В 2 10 км ясно +37.5 +12.0 22 +37 +50 очень
жарко
1008.4 1006.1
15 16.09 СВ 2 н/о н/о +36.0 +10.7 22 +35 +35 очень
жарко
1007.8 1005.5
18 16.09 С 2 н/о н/о +33.3 +9.0 22 +32 +32 жарко 1009.7 1007.3 +29.4 +38.2
21 16.09 СВ 2 н/о н/о +30.4 +16.4 43 +34 +34 очень
душно
1010.7 1008.3
00 17.09 СВ 1 н/о н/о +28.2 +17.5 52 +32 +32 душно 1010.4 1008.0
03 17.09 СВ 2 н/о н/о +28.1 +16.8 50 +32 +32 душно 1011.1 1008.7
06 17.09 СВ 2 н/о н/о +29.7 +17.0 46 +33 +33 душно 1012.0 1009.6 +27.7 +33.3
09 17.09 СВ 3 н/о н/о +34.0 +16.6 35 +37 +37 очень
душно
1010.5 1008.1
12 17.09 СВ 2 н/о н/о +36.6 +13.8 26 +37 +37 очень
жарко
1008.5 1006.2
15 17.09 СВ 2 н/о н/о +35.6 +10.1 21 +34 +34 очень
жарко
1008.0 1005.7
18 17.09 СВ 2 н/о н/о +33.8 +11.9 26 +34 +34 очень
жарко
1009.5 1007.1 +29.6 +37.0
21 17.09 С 2 н/о н/о +31.3 +13.7 34 +33 +33 жарко 1010.3 1007.9
00 18.09 СВ 2 н/о н/о +29.2 +12.9 37 +31 +31 жарко 1010.3 1007.9
03 18.09 СВ 2 н/о н/о +26.4 +13.3 44 +28 +28 жарко 1011.3 1008.9
06 18.09 СВ 2 10 км ясно +29.5 +13.3 37 +31 +36 жарко 1011.7 1009.3 +25.9 +33.7
09 18.09 СВ 2 10 км ясно +34.3 +13.4 28 +35 +52 опасность
солнечного
удара
1010.4 1008.0
12 18.09 СВ 2 10 км ясно +37.7 +12.6 22 +37 +49 очень
жарко
1008.2 1005.9
15 18.09 СВ 2 н/о н/о +37.1 +11.5 21 +36 +36 очень
жарко
1008.0 1005.7
18 18.09 С 2 н/о н/о +35.3 +13.6 27 +36 +36 очень
жарко
1009.7 1007.4 +29.6 +38.4
21 18.09 СВ 1 н/о н/о +31.4 +16.2 40 +34 +34 душно 1011.1 1008.7
00 19.09 СВ 1 н/о н/о +28.9 +18.3 53 +34 +34 очень
душно
1010.4 1008.0
03 19.09 СВ 1 н/о н/о +27.8 +19.0 59 +33 +33 очень
душно
1010.9 1008.5
06 19.09 СВ 3 10 км ясно +29.9 +19.1 52 +35 +40 очень
душно
1011.4 1009.0 +27.4 +35.3
09 19.09 СВ 2 10 км ясно +34.9 +19.0 39 +40 +56 опасность
солнечного
удара
1009.7 1007.4
12 19.09 СВ 2 10 км ясно +38.9 +17.9 29 +42 +53 опасность
перегрева
1007.4 1005.1
15 19.09 СВ 3 н/о н/о +38.1 +16.1 27 +40 +40 очень
душно
1007.6 1005.3
18 19.09 СВ 1 н/о н/о +36.0 +17.2 33 +39 +39 очень
душно
1009.1 1006.8 +30.0 +39.2
21 19.09 С 1 н/о н/о +33.3 +20.2 46 +40 +40 очень
душно
1009.5 1007.1
00 20.09 СВ 2 н/о н/о +30.3 +21.2 58 +38 +38 очень
душно
1009.3 1006.9
03 20.09 С 1 н/о н/о +29.2 +21.2 62 +37 +37 очень
душно
1009.6 1007.2
06 20.09 СВ 2 н/о н/о +31.3 +21.6 56 +39 +39 очень
душно
1010.6 1008.2 +28.5 +36.1
09 20.09 СВ 2 н/о н/о +34.3 +21.8 48 +42 +42 опасность
перегрева
1009.7 1007.3

 

Местоположение метеостанции Эйлат (Израиль): широта 29.55 долгота 34.95 высота над уровнем моря 12 м.

В архиве по умолчанию представлена погода в Эйлате за последнюю неделю. Архивные данные за месяц целиком и за предыдущие месяцы, начиная с января 2011 года, Вы можете получить, выбрав интересующий диапазон дат из раскрывающегося списка и нажав кнопку "Ввод!".


*Определитесь, кто Вы:
робот инопланетянин человек

Внимание! Время в таблицах - всемирное. Для получения местного времени необходимо прибавить поправку, которая равна 2 ч.

Смотрите также архив погоды в соседних городах и на ближайших метеорологических станциях:

Погода в Акаба (Иордания) (5 км)
Погода в Неот-Смадаре (Израиль) (56 км)
Погода в Маане (Иордания) (106 км)
Погода в Нехеле (Египет) (125 км)
Погода в Седоме (Израиль) (170 км)
Погода в Гавр-эс-Сафи (Иордания) (172 км)
Погода в Абу Редис (Египет) (186 км)
Погода в Беэр-Шева (Израиль) (190 км)
Погода в Эль-Торе (Египет) (196 км)
Погода в Эль-Арише (Египет) (202 км)

Пояснения к столбцам:

Ветер - указаны скорость ветра в м/с - средняя за 10 мин, порывы в срок и между сроками (в фигурных скобках) и направление, откуда дует ветер: С - северный, СВ - северо-восточный, В - восточный, ЮВ - юго-восточный, Ю - южный, ЮЗ - юго-западный, З - западный, СЗ - северо-западный.
Видимость - горизонтальная дальность видимости в метрах или километрах. При видимости от 1 до 10 км при отсутствии осадков обычно наблюдается дымка, при ухудшении видимости до 1 км и менее - туман. В сухую погоду видимость может ухудшаться дымом, пылью или мглою.
Явления - указаны атмосферные явления, наблюдавшиеся в срок или в последний час перед сроком; фигурными скобками обозначены явления, наблюдавшиеся между сроками (за 1-3 часа до срока); квадратными скобками обозначены град или гололедные отложения с указанием их диаметра в мм.
Облачность - указаны через наклонную черту общая и нижняя облачность в баллах и высота нижней границы облаков в метрах; квадратными скобками обозначены формы облаков: Ci - перистые, Cs - перисто-слоистые, Cc - перисто-кучевые, Ac - высококучевые, As - высокослоистые, Sc - слоисто-кучевые, Ns - слоисто-дождевые, Cu - кучевые, Cb - кучево-дождевые. Подробнее классификацию облаков см. в Атласе облаков (PDF).
T - Температура воздуха - температура, измеренная на высоте 2 м над землей.
Td - Температура точки росы - температура, при понижении до которой содержащийся в воздухе водяной пар достигнет насыщения.
f - Относительная влажность воздуха - влажноcть воздуха, измеренная на высоте 2 м над землей.
Te - Эффективная температура - температура, которую ощущает одетый по сезону человек в тени. Характеристика душности погоды. При расчете учитывается влияние влажности воздуха и скорости ветра на теплоощущения человека.
Tes - Эффективная температура на солнце - температура, которую ощущает человек, с поправкой на солнечный нагрев. Характеристика знойности погоды. Зависит от высоты солнца над горизонтом, облачности и скорости ветра. Ночью, в пасмурную погоду, а также при ветре 12 м/с и более поправка равна нулю.
P - Атмосферное давление - приведенное к уровню моря атмосферное давление.
Po - Атмосферное давление - измеренное на уровне метеостанции атмосферное давление.
Tmin - Минимальная температура - минимум температуры воздуха на высоте 2 м над землей.
Tmax - Максимальная температура - максимум температуры воздуха на высоте 2 м над землей.
R - Количество осадков - Количество выпавших осадков за период времени, мм. При наведении курсора мыши на число - период времени, за который выпало указанное количество осадков.
R24 - Количество осадков - Количество выпавших осадков за 24 часа, мм.
S - Снежный покров - Высота снежного покрова, см. При наведении курсора мыши на число - состояние снежного покрова и степень покрытия местности в баллах.